[[{"header":{"parameterUnit":"m.s-1","parameterCategory":1,"la1":30.2991,"la2":30.254,"lo1":-89.0895,"lo2":-89.0444,"dy":0.0017,"dx":0.0017,"nx":28,"ny":28,"refTime":"2025-06-07T21:00:00:Z","depth":0,"parameterNumber":2,"parameterNumberName":"U-component_of_WINDS"},"data":[0,0,0,0,0,0,0,0,0,0,0,0,0,0,0,0,0,0,0,0,0,0,0,0,0,0,0,0,0,0,0,0,0,0,0,0,0,0,0,0,0,0,0,0,0,0,0,0,0,0,0,0,0,0,0,0,0,0,2.5945,2.5946,0,2.5954,2.5954,2.5955,2.5963,2.5963,2.5963,2.5964,2.5974,2.5974,2.5975,0,0,0,0,0,0,0,0,0,0,0,0,0,2.5939,2.5939,2.5945,2.5946,2.5946,2.5954,2.5954,2.5955,2.5963,2.5963,2.5963,2.5964,2.5974,2.5974,2.5975,0,0,0,0,0,0,0,0,0,0,0,0,0,2.5945,2.5939,2.5945,2.5951,2.5952,2.5954,2.5954,2.5955,2.5963,2.5963,2.5964,2.5964,2.5974,2.5974,2.5975,2.5973,0,0,2.5975,2.5976,0,0,0,0,0,0,0,0,2.5944,2.5945,2.595,2.5951,2.5951,2.5958,2.5956,2.5961,2.5963,2.5959,2.5964,2.5964,2.5969,2.5969,2.5971,2.5974,2.5974,2.5975,2.5976,2.5976,2.5976,0,0,0,0,0,0,0,2.5944,2.5944,2.5949,2.595,2.5951,2.5954,2.5955,2.5957,2.5963,2.5959,2.596,2.5961,2.5969,2.597,2.5971,2.5974,2.5975,2.5976,2.5976,2.5976,2.5979,2.5979,0,0,0,0,0,0,2.5942,2.5944,2.5949,2.5949,2.5948,2.5954,2.5955,2.5956,2.5963,2.5964,2.5961,2.5961,2.597,2.5971,2.5972,2.5971,2.5976,2.5976,2.5976,2.5979,2.5979,2.5979,0,0,0,0,0,0,2.5942,2.5943,2.5948,2.5947,2.5948,2.5954,2.5954,2.5956,2.5957,2.5964,2.5965,2.5961,2.597,2.5971,2.5973,2.5972,2.5976,2.5976,2.5979,2.5979,2.5979,2.597,0,0,0,0,0,0,2.5942,2.5943,2.5941,2.5947,2.5948,2.5949,2.5954,2.5956,2.5957,2.5958,2.5964,2.5965,2.597,2.5973,2.5973,2.5972,2.5977,2.5979,2.5979,2.5979,2.5971,2.597,2.5969,0,0,0,0,0,2.5942,2.5938,2.5941,2.5941,2.5946,2.5948,2.5949,2.5954,2.5957,2.5956,2.5961,2.5965,2.5972,2.5973,2.5974,2.5973,2.5979,2.5979,2.5979,2.5971,2.597,2.5969,0,0,0,0,0,0,2.5932,2.5939,2.5942,2.594,2.5944,2.595,2.5949,2.5953,2.5956,2.5957,2.5964,2.5965,2.5967,2.597,2.597,2.5973,2.5976,2.5976,2.597,2.5969,2.5969,2.5968,2.5977,0,0,0,0,0,2.5929,2.593,2.5936,2.5934,2.5936,2.5942,2.5943,2.5947,2.5952,2.5953,2.5958,2.5963,2.5966,2.5968,2.5971,2.5972,2.5974,2.5972,2.5971,2.5971,2.597,2.5973,2.5972,2.5978,2.5978,2.5978,0,0,2.5924,2.5928,2.5928,2.5932,2.5935,2.5937,2.5943,2.5944,2.5946,2.5953,2.5956,2.596,2.5966,2.5967,2.5968,2.597,2.597,2.597,2.597,2.597,2.5972,2.5972,2.5971,2.5978,2.5978,2.5978,0,0,2.5916,2.5918,2.5917,2.5921,2.5926,2.5931,2.5931,2.5937,2.594,2.5942,2.5949,2.5952,2.5957,2.5961,2.5964,2.5961,2.5965,2.5962,2.5958,2.596,2.596,2.5959,2.5959,2.5959,2.5962,2.5962,2.5962,0,2.5908,2.591,2.5916,2.5918,2.592,2.5928,2.5928,2.5931,2.5937,2.5939,2.5942,2.595,2.5954,2.5958,2.5957,2.5959,2.5961,2.5961,2.5959,2.5959,2.5958,2.5958,2.5958,2.5961,2.5961,2.5961,2.5962,0,2.5902,2.5904,2.5903,2.5908,2.5911,2.5912,2.5919,2.5921,2.5926,2.5931,2.5935,2.5941,2.5946,2.5948,2.5952,2.5953,2.5954,2.5958,2.5961,2.5957,2.5957,2.5957,2.5961,2.5961,2.5961,2.5961,0,0,2.5885,2.5896,2.5896,2.59,2.5907,2.5909,2.5911,2.5917,2.5919,2.5924,2.5927,2.5932,2.5937,2.594,2.5945,2.5947,2.5946,2.5951,2.5951,2.595,2.5949,2.5946,2.5946,2.5949,2.5949,2.5949,2.5949,0,2.5878,2.5881,2.5888,2.5889,2.5892,2.5901,2.5903,2.5909,2.5914,2.5918,2.5925,2.5929,2.5934,2.5936,2.5939,2.5945,2.5946,2.5946,2.5953,2.5953,2.5951,2.5945,2.5942,2.594,2.5949,2.5949,2.5949,0,2.5869,2.5874,2.5876,2.5885,2.5887,2.5888,2.5895,2.5898,2.5906,2.591,2.5916,2.5922,2.5926,2.593,2.5938,2.5938,2.5942,2.5946,2.5946,2.5946,2.595,2.5946,2.594,2.594,2.5948,2.5948,2.5948,0,2.5857,2.5864,2.5867,2.587,2.5881,2.5882,2.5887,2.5895,2.5898,2.5905,2.5908,2.5915,2.5919,2.5925,2.5934,2.5936,2.5941,2.5945,2.5945,2.5945,2.5945,2.5945,2.594,2.5948,2.5948,2.5948,2.5948,0,2.5848,2.5849,2.5862,2.5863,2.5865,2.5875,2.5877,2.5883,2.589,2.5894,2.5903,2.5906,2.5918,2.5924,2.5931,2.5937,2.5938,2.5943,2.5945,2.5942,2.5941,2.5944,2.5944,2.5948,2.5948,2.5948,2.5948,0,2.5835,2.5843,2.5846,2.5857,2.586,2.5861,2.5871,2.5874,2.5881,2.5886,2.5888,2.5899,2.5907,2.5917,2.5927,2.5932,2.5937,2.594,2.5934,2.5935,2.5935,2.5935,2.5931,2.5931,2.5939,2.5939,2.5939,0,2.5828,2.5829,2.5841,2.5844,2.5848,2.5853,2.5857,2.5868,2.5872,2.5882,2.5884,2.5892,2.5899,2.5911,2.5921,2.593,2.5933,2.5931,2.5934,2.5932,2.5933,2.5933,2.5934,2.593,2.593,2.593,2.5929,0,2.5815,2.582,2.5825,2.5833,2.5838,2.5844,2.5851,2.5854,2.5866,2.587,2.5878,2.5884,2.5895,2.5904,2.5914,2.5921,2.5928,2.5929,2.5929,2.5926,2.5923,2.5925,2.5932,2.5928,2.5929,2.5929,2.5929,2.5929,2.5805,2.5807,2.5816,2.5823,2.5829,2.5836,2.584,2.5848,2.5854,2.5864,2.587,2.5878,2.5889,2.5904,2.591,2.5918,2.592,2.5921,2.5921,2.5921,2.592,2.5922,2.592,2.592,2.592,2.592,2.592,0,2.5794,2.58,2.5806,2.5816,2.5822,2.5828,2.5837,2.5842,2.5848,2.5857,2.5864,2.5875,2.5884,2.5895,2.5905,2.5909,2.5913,2.5912,2.5911,2.5913,2.5917,2.5916,2.5909,2.5909,2.5909,2.5909,2.5909,2.5909,2.5788,2.5792,2.5799,2.5807,2.5814,2.5822,2.5827,2.5834,2.5841,2.5852,2.586,2.5867,2.5878,2.589,2.5899,2.5903,2.5906,2.5904,2.5908,2.5912,2.5913,2.5913,2.5912,2.5905,2.5905,2.5904,2.5904,2.5904]},{"header":{"parameterUnit":"m.s-1","parameterCategory":1,"la1":30.2991,"la2":30.254,"lo1":-89.0895,"lo2":-89.0444,"dy":0.0017,"dx":0.0017,"nx":28,"ny":28,"refTime":"2025-06-07T21:00:00:Z","depth":0,"parameterNumber":3,"parameterNumberName":"V-component_of_WINDS"},"data":[0,0,0,0,0,0,0,0,0,0,0,0,0,0,0,0,0,0,0,0,0,0,0,0,0,0,0,0,0,0,0,0,0,0,0,0,0,0,0,0,0,0,0,0,0,0,0,0,0,0,0,0,0,0,0,0,0,0,4.2797,4.2798,0,4.286,4.286,4.2861,4.2892,4.2892,4.2892,4.2892,4.295,4.2951,4.2953,0,0,0,0,0,0,0,0,0,0,0,0,0,4.2699,4.27,4.2797,4.2798,4.2799,4.2859,4.286,4.2861,4.2892,4.2892,4.2892,4.2892,4.2949,4.2951,4.2953,0,0,0,0,0,0,0,0,0,0,0,0,0,4.2749,4.2701,4.2797,4.2822,4.2825,4.2859,4.286,4.2861,4.2892,4.2892,4.2892,4.2892,4.2948,4.2951,4.2953,4.2966,0,0,4.296,4.2961,0,0,0,0,0,0,0,0,4.2746,4.2753,4.2817,4.282,4.2824,4.2868,4.2847,4.2896,4.2892,4.2866,4.2892,4.2892,4.2922,4.2926,4.2938,4.2968,4.2971,4.296,4.2961,4.2962,4.2963,0,0,0,0,0,0,0,4.2743,4.275,4.2822,4.2818,4.2822,4.2828,4.2835,4.2856,4.2893,4.2869,4.2871,4.2878,4.2924,4.2936,4.2939,4.2972,4.296,4.2962,4.2963,4.2964,4.3015,4.3015,0,0,0,0,0,0,4.2736,4.2747,4.282,4.2824,4.2784,4.2829,4.2837,4.2854,4.2893,4.2899,4.2878,4.288,4.2932,4.2937,4.2942,4.2959,4.2962,4.2964,4.2966,4.3015,4.3015,4.3015,0,0,0,0,0,0,4.2734,4.2742,4.2817,4.2786,4.2796,4.2831,4.2849,4.2855,4.2867,4.29,4.2906,4.2884,4.2932,4.2938,4.296,4.2962,4.2965,4.2967,4.3015,4.3015,4.3015,4.2994,0,0,0,0,0,0,4.2731,4.2741,4.2748,4.2786,4.2798,4.2836,4.2849,4.2856,4.2872,4.2874,4.2907,4.2913,4.2933,4.2956,4.2962,4.2965,4.2969,4.3015,4.3015,4.3015,4.2995,4.2994,4.2993,0,0,0,0,0,4.2727,4.2739,4.2748,4.2757,4.2807,4.2837,4.2843,4.2867,4.2872,4.2878,4.2899,4.2912,4.296,4.2958,4.2965,4.2968,4.3015,4.3015,4.3015,4.2996,4.2994,4.2993,0,0,0,0,0,0,4.2698,4.2744,4.2755,4.278,4.2804,4.2842,4.285,4.2865,4.2887,4.2888,4.2915,4.2922,4.2941,4.2957,4.2953,4.2982,4.2989,4.299,4.2972,4.297,4.2969,4.2965,4.2971,0,0,0,0,0,4.2694,4.2716,4.2755,4.2772,4.2784,4.2815,4.2829,4.2845,4.2871,4.2881,4.2904,4.2926,4.2947,4.2959,4.298,4.2997,4.3005,4.3003,4.3002,4.3,4.3001,4.3011,4.3011,4.3015,4.3015,4.3015,0,0,4.2687,4.2715,4.2727,4.2767,4.2788,4.2808,4.2824,4.2844,4.2859,4.2883,4.2906,4.2923,4.295,4.2969,4.2979,4.2983,4.3001,4.3,4.2999,4.3001,4.3011,4.3011,4.301,4.3015,4.3015,4.3015,0,0,4.2684,4.2708,4.2725,4.2746,4.2779,4.2799,4.2803,4.2839,4.2852,4.2875,4.2894,4.291,4.2945,4.2964,4.2977,4.2981,4.2993,4.2987,4.298,4.2989,4.2989,4.2989,4.299,4.299,4.2987,4.2987,4.2987,0,4.267,4.2704,4.2731,4.2752,4.2768,4.2793,4.281,4.2828,4.2864,4.2874,4.2879,4.2923,4.2943,4.2967,4.2968,4.2978,4.2983,4.2983,4.2987,4.2987,4.2987,4.2989,4.2989,4.2986,4.2986,4.2986,4.2986,0,4.2685,4.2707,4.2717,4.2754,4.2772,4.279,4.2819,4.2832,4.2847,4.2867,4.2889,4.2914,4.294,4.2947,4.296,4.2972,4.2974,4.2982,4.2989,4.2986,4.2987,4.2988,4.2985,4.2985,4.2985,4.2986,0,0,4.2665,4.2718,4.2721,4.2738,4.2775,4.2792,4.2811,4.2838,4.2849,4.2873,4.2888,4.2917,4.2926,4.2941,4.2957,4.2965,4.2966,4.2973,4.2974,4.297,4.298,4.2974,4.2974,4.2975,4.2975,4.2975,4.2978,0,4.2667,4.2704,4.273,4.2756,4.2777,4.28,4.2816,4.284,4.2858,4.2877,4.2896,4.2916,4.2925,4.2935,4.2944,4.2964,4.2969,4.2964,4.2988,4.2988,4.2981,4.2975,4.2969,4.297,4.2979,4.2979,4.2979,0,4.2675,4.2701,4.273,4.2765,4.2775,4.2789,4.2816,4.2834,4.286,4.2873,4.289,4.2907,4.2926,4.2931,4.2956,4.2953,4.2963,4.2974,4.2975,4.2978,4.2983,4.2978,4.2971,4.2972,4.298,4.298,4.298,0,4.2658,4.2699,4.2722,4.2736,4.2777,4.2787,4.2804,4.2831,4.2845,4.2868,4.2878,4.2901,4.2914,4.2931,4.2953,4.2955,4.2976,4.2983,4.2986,4.2985,4.2989,4.2988,4.2984,4.2996,4.2996,4.2996,4.2996,0,4.2658,4.2674,4.2715,4.2729,4.2747,4.2775,4.2793,4.2811,4.2835,4.2851,4.2872,4.2887,4.2915,4.2932,4.2949,4.2967,4.2973,4.2982,4.2987,4.2981,4.2979,4.2988,4.2988,4.2996,4.2996,4.2996,4.2996,0,4.2641,4.2669,4.2696,4.2734,4.2743,4.2756,4.2787,4.28,4.282,4.284,4.2847,4.2876,4.2898,4.2922,4.295,4.2962,4.2979,4.2985,4.297,4.2973,4.2974,4.2974,4.2975,4.2977,4.2987,4.2987,4.2987,0,4.264,4.2653,4.2693,4.2707,4.2725,4.2746,4.2762,4.2789,4.2804,4.2836,4.2845,4.2868,4.2889,4.2922,4.2945,4.2967,4.2973,4.2972,4.2977,4.297,4.2973,4.2972,4.2973,4.2971,4.2971,4.2971,4.297,0,4.2633,4.2647,4.267,4.2698,4.2717,4.274,4.2763,4.2772,4.2804,4.2819,4.2843,4.2859,4.2889,4.2912,4.2937,4.2952,4.2966,4.2969,4.2971,4.2965,4.2956,4.2961,4.2967,4.2969,4.2969,4.2969,4.2969,4.2969,4.2624,4.2638,4.2668,4.2693,4.2714,4.2735,4.275,4.2772,4.2793,4.2822,4.2836,4.2859,4.2884,4.2919,4.2934,4.2951,4.2956,4.2958,4.2959,4.2959,4.2957,4.2953,4.2956,4.2956,4.2956,4.2956,4.2956,0,4.2619,4.264,4.2663,4.2696,4.2715,4.2729,4.2755,4.277,4.2791,4.2814,4.2834,4.2861,4.2883,4.2908,4.2931,4.294,4.2947,4.2945,4.2944,4.2948,4.2952,4.2948,4.2939,4.2939,4.2939,4.2939,4.2939,4.2939,4.2619,4.2642,4.2659,4.2692,4.2712,4.2737,4.2751,4.277,4.2789,4.2819,4.2838,4.2855,4.2878,4.2904,4.2924,4.293,4.2938,4.2934,4.2942,4.2946,4.2947,4.2949,4.2945,4.2936,4.2936,4.2937,4.2937,4.2937]}]]